P/2024 T1 ( Rankin )

Japanese version
Home page
Updated on March 23, 2025

---------------------------------------------------------------------

* Profile

Discovery Date October 2, 2024
Magnitude 19.8 mag
Discoverer David Rankin (Mt. Lemmon Survey)

* Pictures

* Orbital Elements

Epoch 2025 May 5.0 TT = JDT 2460800.5
T 2024 Sept. 30.40108 TT                                Pike
q   2.2870103            (2000.0)            P               Q
n   0.05812244     Peri.  164.86662     +0.08242655     -0.95088486
a   6.6004488      Node   279.71088     +0.88004581     +0.20994401
e   0.6535069      Incl.   17.62020     +0.46768070     -0.22746758
P  17.0
From 158 observations 2024 Sept. 9-2025 Feb. 19, mean residual 0".6.

* Magnitudes Graph

        m1 = 13.0 + 5 log d + 10.0 log r

---------------------------------------------------------------------

The orbital elements are published on M.P.E.C. 2025-D44.
The magnitudes graphs are made with Comet for Windows.

---------------------------------------------------------------------

Copyright(C) Seiichi Yoshida (comet@aerith.net). All rights reserved.